| time (UTC) | temp F | wind direction | speed knots | gust knots | rain 1hr in | rain 24hr in | rain mn in | humidity % | barometer mb |
| 20260507070056 | 37 | 152 | 0.0 | 0.0 | 0.01 | 0.24 | 0.02 | 94 | 1016.8 |
| 20260507064406 | 38 | 152 | 0.0 | 0.0 | 0.01 | 0.38 | 0.02 | 94 | 1016.4 |
| 20260507061400 | 38 | 288 | 0.0 | 4.3 | 0.01 | 0.38 | 0.02 | 93 | 1016.6 |
| 20260507054404 | 36 | 204 | 0.0 | 4.3 | 0.00 | 0.43 | 0.01 | 93 | 1016.4 |
| 20260507052900 | 36 | 70 | 0.0 | 3.5 | 0.00 | 0.43 | 0.01 | 93 | 1016.3 |
| 20260507045908 | 33 | 336 | 0.0 | 0.0 | 0.00 | 0.43 | 0.01 | 93 | 1016.2 |
| 20260507044405 | 31 | 314 | 0.0 | 0.9 | 0.00 | 0.43 | 0.01 | 93 | 1016.1 |
| 20260507042855 | 31 | 315 | 0.0 | 0.0 | 0.00 | 0.43 | 0.01 | 93 | 1015.9 |
| 20260507035905 | 30 | 315 | 0.0 | 0.0 | 0.00 | 0.43 | 0.01 | 94 | 1015.5 |
| 20260507034401 | 32 | 315 | 0.0 | 0.0 | 0.00 | 0.43 | 0.01 | 93 | 1015.5 |
| 20260507032859 | 30 | 315 | 0.0 | 0.0 | 0.00 | 0.43 | 0.01 | 93 | 1015.6 |
| 20260507025905 | 31 | 315 | 0.0 | 1.7 | 0.00 | 0.43 | 0.01 | 93 | 1015.7 |
| 20260507024401 | 26 | 315 | 0.0 | 1.7 | 0.00 | 0.43 | 0.01 | 94 | 1015.5 |
| 20260507022855 | 26 | 317 | 0.0 | 0.0 | 0.00 | 0.43 | 0.01 | 94 | 1015.6 |
| 20260507015908 | 28 | 317 | 0.0 | 0.0 | 0.00 | 0.43 | 0.01 | 94 | 1015.6 |
| 20260507014404 | 29 | 317 | 0.0 | 0.0 | 0.00 | 0.43 | 0.01 | 94 | 1015.6 |
| 20260507011351 | 30 | 317 | 0.0 | 0.9 | 0.00 | 0.43 | 0.01 | 94 | 1015.6 |
| 20260507004403 | 31 | 317 | 0.0 | 0.0 | 0.00 | 0.43 | 0.01 | 94 | 1015.5 |
| 20260507002900 | 32 | 317 | 0.0 | 0.0 | 0.00 | 0.43 | 0.01 | 94 | 1015.5 |
| 20260506235856 | 31 | 33 | 0.0 | 1.7 | 0.00 | 0.43 | 0.01 | 94 | 1015.5 |
| 20260506232905 | 34 | 33 | 0.0 | 0.0 | 0.00 | 0.43 | 0.01 | 94 | 1015.3 |
| 20260506231402 | 35 | 33 | 0.0 | 1.7 | 0.01 | 0.43 | 0.01 | 93 | 1015.5 |
| 20260506224407 | 37 | 51 | 1.7 | 2.6 | 0.01 | 0.43 | 0.01 | 93 | 1015.3 |
| 20260506222900 | 38 | 103 | 2.6 | 5.2 | 0.01 | 0.43 | 0.01 | 93 | 1015.3 |
| 20260506215917 | 38 | 88 | 1.7 | 5.2 | 0.02 | 0.43 | 0.00 | 93 | 1015.4 |
| 20260506212901 | 38 | 69 | 0.9 | 6.1 | 0.01 | 0.42 | 0.42 | 93 | 1015.5 |
| 20260506211352 | 39 | 63 | 2.6 | 5.2 | 0.02 | 0.42 | 0.42 | 93 | 1015.6 |
| 20260506204404 | 38 | 104 | 0.0 | 1.7 | 0.02 | 0.41 | 0.41 | 93 | 1015.4 |
| 20260506202859 | 38 | 97 | 1.7 | 6.1 | 0.02 | 0.41 | 0.41 | 93 | 1015.2 |
| 20260506195911 | 39 | 80 | 0.0 | 4.3 | 0.02 | 0.39 | 0.39 | 93 | 1015.3 |
| 20260506194407 | 39 | 78 | 2.6 | 5.2 | 0.02 | 0.40 | 0.39 | 93 | 1015.1 |
| 20260506192858 | 39 | 103 | 0.9 | 4.3 | 0.04 | 0.39 | 0.39 | 93 | 1014.8 |
| 20260506185907 | 38 | 50 | 3.5 | 6.1 | 0.04 | 0.39 | 0.38 | 94 | 1014.5 |
| 20260506184403 | 39 | 99 | 0.0 | 1.7 | 0.03 | 0.38 | 0.37 | 94 | 1014.7 |
| 20260506181408 | 40 | 85 | 0.0 | 1.7 | 0.00 | 0.35 | 0.34 | 93 | 1014.1 |
| 20260506175902 | 40 | 85 | 0.0 | 3.5 | 0.00 | 0.35 | 0.34 | 93 | 1013.8 |
| 20260506174359 | 41 | 83 | 1.7 | 5.2 | 0.00 | 0.35 | 0.34 | 93 | 1013.9 |
| 20260506171405 | 40 | 103 | 0.0 | 3.5 | 0.00 | 0.35 | 0.34 | 93 | 1013.6 |
| 20260506165901 | 40 | 62 | 0.0 | 0.9 | 0.00 | 0.35 | 0.34 | 93 | 1013.5 |
| 20260506162916 | 40 | 128 | 0.0 | 7.0 | 0.00 | 0.36 | 0.34 | 93 | 1013.5 |
| 20260506161402 | 41 | 213 | 2.6 | 8.7 | 0.00 | 0.36 | 0.34 | 93 | 1013.3 |
| 20260506155856 | 41 | 98 | 1.7 | 5.2 | 0.00 | 0.36 | 0.34 | 93 | 1013.4 |
| 20260506152906 | 42 | 60 | 0.0 | 4.3 | 0.00 | 0.37 | 0.34 | 93 | 1013.4 |
| 20260506151403 | 42 | 27 | 0.9 | 8.7 | 0.00 | 0.37 | 0.34 | 93 | 1013.3 |
| 20260506145859 | 41 | 112 | 2.6 | 6.1 | 0.00 | 0.37 | 0.34 | 93 | 1013.4 |
| 20260506144353 | 41 | 101 | 2.6 | 6.1 | 0.02 | 0.37 | 0.34 | 93 | 1013.5 |
| 20260506141405 | 41 | 90 | 3.5 | 10.4 | 0.04 | 0.37 | 0.34 | 93 | 1013.5 |
| 20260506135859 | 38 | 112 | 1.7 | 6.1 | 0.04 | 0.37 | 0.34 | 93 | 1013.7 |
| 20260506132905 | 41 | 70 | 1.7 | 5.2 | 0.02 | 0.36 | 0.31 | 93 | 1013.9 |
| 20260506131402 | 41 | 77 | 1.7 | 7.0 | 0.02 | 0.35 | 0.30 | 93 | 1014.0 |
| 20260506125857 | 41 | 311 | 0.0 | 5.2 | 0.02 | 0.35 | 0.30 | 93 | 1014.2 |
| 20260506122903 | 42 | 23 | 2.6 | 8.7 | 0.03 | 0.39 | 0.29 | 93 | 1014.0 |
| 20260506121359 | 42 | 105 | 1.7 | 9.6 | 0.02 | 0.38 | 0.28 | 93 | 1014.1 |
| 20260506114412 | 41 | 286 | 0.9 | 5.2 | 0.02 | 0.39 | 0.27 | 93 | 1014.0 |
| 20260506112900 | 42 | 11 | 1.7 | 7.0 | 0.02 | 0.39 | 0.26 | 93 | 1014.1 |
| 20260506111353 | 41 | 67 | 0.9 | 6.1 | 0.02 | 0.39 | 0.26 | 93 | 1014.3 |
| 20260506104403 | 41 | 67 | 1.7 | 5.2 | 0.01 | 0.61 | 0.25 | 93 | 1014.6 |
| 20260506102853 | 41 | 331 | 0.9 | 4.3 | 0.02 | 0.61 | 0.24 | 93 | 1014.7 |
| 20260506095907 | 40 | 30 | 1.7 | 5.2 | 0.02 | 0.61 | 0.24 | 93 | 1014.5 |
| 20260506094402 | 40 | 355 | 1.7 | 5.2 | 0.02 | 0.73 | 0.24 | 93 | 1014.7 |
| 20260506092854 | 39 | 228 | 1.7 | 7.0 | 0.00 | 0.72 | 0.23 | 93 | 1014.6 |
| 20260506085907 | 39 | 233 | 0.0 | 1.7 | 0.01 | 0.72 | 0.23 | 93 | 1014.6 |
| 20260506084359 | 39 | 262 | 0.0 | 3.5 | 0.01 | 0.73 | 0.23 | 93 | 1014.3 |
| 20260506081405 | 39 | 285 | 0.0 | 1.7 | 0.02 | 0.73 | 0.23 | 93 | 1014.8 |
| 20260506072907 | 38 | 19 | 1.7 | 4.3 | 0.06 | 0.75 | 0.22 | 93 | 1014.7 |